GLO2140 SBFZ-SBFI

Flight info

Callsign GLO2140
Flight time 3h 48m
Altitude 36000
Route DALVO DCT GIDMI UZ18 VADOP DCT ASDOV DCT MORDA UM532 PRR DCT ILMIS
Aircraft B738/M-SDFGIKLORWX/LB1

Departure

Time 2026-04-23 17:36
Airport Pinto Martins International Airport (SBFZ)

Arrival

Time 2026-04-23 21:24
Airport Cataratas International Airport (SBFI)
Time Latitude Longitude Altitude Speed Heading
2026-04-23 16:44 -3.77876 -38.53858 90 ft 0 kts 217°
2026-04-23 17:30 -3.77866 -38.53850 92 ft 4 kts 221°
2026-04-23 17:31 -3.77847 -38.53830 91 ft 4 kts 238°
2026-04-23 17:31 -3.77838 -38.53807 91 ft 4 kts 275°
2026-04-23 17:31 -3.77844 -38.53792 89 ft 1 kts 315°
2026-04-23 17:31 -3.77847 -38.53790 89 ft 0 kts 315°
2026-04-23 17:33 -3.77845 -38.53791 89 ft 1 kts 315°
2026-04-23 17:33 -3.77831 -38.53805 91 ft 5 kts 315°
2026-04-23 17:33 -3.77799 -38.53839 91 ft 9 kts 309°
2026-04-23 17:34 -3.77756 -38.53898 92 ft 13 kts 305°
2026-04-23 17:34 -3.77706 -38.53988 94 ft 17 kts 289°
2026-04-23 17:34 -3.77632 -38.54267 92 ft 24 kts 284°
2026-04-23 17:35 -3.77555 -38.54375 92 ft 19 kts 347°
2026-04-23 17:35 -3.77376 -38.54354 96 ft 13 kts 38°
2026-04-23 17:35 -3.77389 -38.54172 97 ft 51 kts 105°
2026-04-23 17:36 -3.77541 -38.53597 92 ft 118 kts 105°
2026-04-23 17:36 -3.77796 -38.52621 149 ft 167 kts 104°
2026-04-23 17:36 -3.78098 -38.51473 882 ft 168 kts 105°
2026-04-23 17:36 -3.78400 -38.50375 1852 ft 163 kts 106°
2026-04-23 17:37 -3.78831 -38.49265 2356 ft 186 kts 129°
2026-04-23 17:37 -3.80028 -38.48623 2614 ft 213 kts 173°
2026-04-23 17:37 -3.82996 -38.49680 3157 ft 265 kts 232°
2026-04-23 17:38 -3.83942 -38.51298 3879 ft 273 kts 240°
2026-04-23 17:38 -3.84807 -38.52991 4769 ft 275 kts 241°
2026-04-23 17:38 -3.85672 -38.54715 5520 ft 279 kts 240°
2026-04-23 17:38 -3.86256 -38.55873 6062 ft 282 kts 240°
2026-04-23 17:39 -3.87150 -38.57634 6799 ft 286 kts 241°
2026-04-23 17:39 -3.88057 -38.59413 7555 ft 289 kts 241°
2026-04-23 17:39 -3.88983 -38.61217 8291 ft 293 kts 241°
2026-04-23 17:39 -3.89922 -38.63039 9025 ft 297 kts 241°
2026-04-23 17:40 -3.90881 -38.64891 9750 ft 302 kts 240°
2026-04-23 17:40 -3.91861 -38.66777 10338 ft 311 kts 241°
2026-04-23 17:40 -3.92898 -38.68766 10522 ft 334 kts 241°
2026-04-23 17:40 -3.94006 -38.70890 10771 ft 352 kts 241°
2026-04-23 17:41 -3.95153 -38.73092 11237 ft 361 kts 241°
2026-04-23 17:41 -3.97492 -38.77581 12527 ft 368 kts 241°
2026-04-23 17:41 -3.98685 -38.79867 13110 ft 373 kts 241°
2026-04-23 17:42 -4.01112 -38.84521 14256 ft 379 kts 242°
2026-04-23 17:42 -4.02339 -38.86872 14801 ft 382 kts 242°
2026-04-23 17:42 -4.03578 -38.89248 15330 ft 386 kts 242°
2026-04-23 17:43 -4.04808 -38.91606 15837 ft 389 kts 241°
2026-04-23 17:43 -4.06066 -38.94017 16355 ft 392 kts 241°
2026-04-23 17:43 -4.07332 -38.96445 16890 ft 395 kts 241°
2026-04-23 17:43 -4.08610 -38.98894 17405 ft 397 kts 241°
2026-04-23 17:44 -4.09895 -39.01358 17890 ft 401 kts 241°
2026-04-23 17:44 -4.11189 -39.03842 18349 ft 404 kts 241°
2026-04-23 17:44 -4.13807 -39.08863 19201 ft 409 kts 242°
2026-04-23 17:45 -4.15126 -39.11393 19625 ft 411 kts 242°
2026-04-23 17:45 -4.17790 -39.16505 20452 ft 416 kts 242°
2026-04-23 17:45 -4.19132 -39.19081 20856 ft 418 kts 242°
2026-04-23 17:46 -4.21843 -39.24283 21631 ft 424 kts 242°
2026-04-23 17:46 -4.23195 -39.26880 22008 ft 426 kts 242°
2026-04-23 17:46 -4.24571 -39.29521 22392 ft 429 kts 242°
2026-04-23 17:47 -4.25958 -39.32185 22757 ft 432 kts 242°
2026-04-23 17:47 -4.27351 -39.34859 23129 ft 434 kts 242°
2026-04-23 17:47 -4.30164 -39.40263 23770 ft 439 kts 242°
2026-04-23 17:48 -4.31579 -39.42981 24078 ft 441 kts 242°
2026-04-23 17:48 -4.33001 -39.45713 24402 ft 442 kts 242°
2026-04-23 17:48 -4.34428 -39.48454 24712 ft 444 kts 242°
2026-04-23 17:48 -4.35909 -39.51138 24954 ft 447 kts 236°
2026-04-23 17:49 -4.37796 -39.53612 25276 ft 447 kts 227°
2026-04-23 17:49 -4.40034 -39.55775 25557 ft 448 kts 218°
2026-04-23 17:49 -4.42535 -39.57664 25810 ft 451 kts 215°
2026-04-23 17:49 -4.45084 -39.59512 26108 ft 452 kts 215°
2026-04-23 17:50 -4.47641 -39.61348 26428 ft 453 kts 214°
2026-04-23 17:50 -4.52779 -39.65065 26938 ft 458 kts 215°
2026-04-23 17:50 -4.55349 -39.66945 27294 ft 457 kts 215°
2026-04-23 17:51 -4.57924 -39.68839 27534 ft 460 kts 215°
2026-04-23 17:51 -4.60476 -39.70720 27752 ft 462 kts 216°
2026-04-23 17:51 -4.65658 -39.74551 28352 ft 464 kts 216°
2026-04-23 17:52 -4.68264 -39.76478 28552 ft 467 kts 216°
2026-04-23 17:52 -4.73502 -39.80350 29122 ft 468 kts 215°
2026-04-23 17:52 -4.76129 -39.82292 29307 ft 470 kts 216°
2026-04-23 17:53 -4.81408 -39.86194 29834 ft 472 kts 216°
2026-04-23 17:53 -4.84060 -39.88154 30049 ft 474 kts 216°
2026-04-23 17:53 -4.86718 -39.90119 30196 ft 476 kts 216°
2026-04-23 17:54 -4.89384 -39.92090 30402 ft 477 kts 216°
2026-04-23 17:54 -4.92052 -39.94064 30631 ft 477 kts 216°
2026-04-23 17:54 -4.97393 -39.98014 31120 ft 477 kts 216°
2026-04-23 17:55 -5.02726 -40.01959 31606 ft 477 kts 216°
2026-04-23 17:55 -5.05394 -40.03934 31842 ft 477 kts 216°
2026-04-23 17:55 -5.08065 -40.05910 32143 ft 476 kts 216°
2026-04-23 17:56 -5.10727 -40.07879 32400 ft 476 kts 216°
2026-04-23 17:56 -5.16030 -40.11804 32851 ft 477 kts 216°
2026-04-23 17:56 -5.18692 -40.13775 33110 ft 476 kts 216°
2026-04-23 17:57 -5.21362 -40.15752 33445 ft 474 kts 216°
2026-04-23 17:57 -5.24015 -40.17716 33691 ft 474 kts 216°
2026-04-23 17:57 -5.29323 -40.21647 34121 ft 474 kts 216°
2026-04-23 17:58 -5.31977 -40.23612 34340 ft 474 kts 216°
2026-04-23 17:58 -5.34626 -40.25574 34576 ft 473 kts 216°
2026-04-23 17:58 -5.37273 -40.27535 34776 ft 473 kts 216°
2026-04-23 17:58 -5.39920 -40.29497 35026 ft 471 kts 216°
2026-04-23 17:59 -5.42549 -40.31445 35257 ft 470 kts 216°
2026-04-23 17:59 -5.45184 -40.33398 35482 ft 470 kts 216°
2026-04-23 17:59 -5.47809 -40.35343 35710 ft 468 kts 216°
2026-04-23 17:59 -5.50425 -40.37282 35875 ft 467 kts 216°
2026-04-23 18:00 -5.53047 -40.39227 35864 ft 468 kts 216°
2026-04-23 18:00 -5.58294 -40.43117 35885 ft 469 kts 216°
2026-04-23 18:01 -5.63554 -40.47018 35884 ft 470 kts 216°
2026-04-23 18:01 -5.68815 -40.50920 35884 ft 471 kts 216°
2026-04-23 18:02 -5.74045 -40.54802 35882 ft 471 kts 216°
2026-04-23 18:02 -5.79319 -40.58717 35884 ft 471 kts 216°
2026-04-23 18:03 -5.84595 -40.62634 35895 ft 471 kts 216°
2026-04-23 18:03 -5.89872 -40.66553 35887 ft 471 kts 216°
2026-04-23 18:04 -5.95138 -40.70468 35894 ft 471 kts 216°
2026-04-23 18:04 -6.00405 -40.74385 35898 ft 470 kts 216°
2026-04-23 18:05 -6.05660 -40.78294 35899 ft 470 kts 216°
2026-04-23 18:05 -6.10917 -40.82206 35903 ft 470 kts 216°
2026-04-23 18:06 -6.16133 -40.86088 35888 ft 470 kts 216°
2026-04-23 18:06 -6.21382 -40.89995 35894 ft 469 kts 216°
2026-04-23 18:07 -6.26633 -40.93906 35892 ft 469 kts 216°
2026-04-23 18:07 -6.31878 -40.97812 35903 ft 469 kts 216°
2026-04-23 18:08 -6.36279 -41.01091 35893 ft 470 kts 216°
2026-04-23 18:08 -6.42378 -41.05636 35895 ft 470 kts 216°
2026-04-23 18:09 -6.47633 -41.09554 35898 ft 470 kts 216°
2026-04-23 18:09 -6.52883 -41.13469 35887 ft 470 kts 216°
2026-04-23 18:10 -6.58134 -41.17387 35896 ft 470 kts 216°
2026-04-23 18:10 -6.63392 -41.21309 35891 ft 470 kts 216°
2026-04-23 18:11 -6.68649 -41.25230 35885 ft 470 kts 216°
2026-04-23 18:11 -6.73870 -41.29126 35893 ft 470 kts 216°
2026-04-23 18:12 -6.79119 -41.33046 35880 ft 470 kts 216°
2026-04-23 18:12 -6.84363 -41.36963 35893 ft 469 kts 216°
2026-04-23 18:13 -6.89611 -41.40884 35878 ft 469 kts 216°
2026-04-23 18:13 -6.94849 -41.44799 35877 ft 469 kts 216°
2026-04-23 18:14 -7.00088 -41.48716 35872 ft 469 kts 216°
2026-04-23 18:14 -7.05317 -41.52626 35884 ft 468 kts 216°
2026-04-23 18:15 -7.10547 -41.56539 35875 ft 468 kts 216°
2026-04-23 18:15 -7.15766 -41.60445 35875 ft 467 kts 216°
2026-04-23 18:16 -7.20988 -41.64353 35865 ft 467 kts 216°
2026-04-23 18:16 -7.26200 -41.68255 35873 ft 467 kts 216°
2026-04-23 18:17 -7.33984 -41.74085 35864 ft 467 kts 216°
2026-04-23 18:17 -7.39189 -41.77985 35874 ft 466 kts 216°
2026-04-23 18:18 -7.44398 -41.81889 35866 ft 466 kts 216°
2026-04-23 18:18 -7.49599 -41.85788 35875 ft 466 kts 216°
2026-04-23 18:19 -7.54812 -41.89698 35873 ft 466 kts 216°
2026-04-23 18:19 -7.59986 -41.93580 35865 ft 466 kts 216°
2026-04-23 18:20 -7.65196 -41.97489 35872 ft 466 kts 216°
2026-04-23 18:20 -7.70406 -42.01400 35869 ft 467 kts 216°
2026-04-23 18:21 -7.75616 -42.05312 35864 ft 466 kts 217°
2026-04-23 18:21 -7.80825 -42.09225 35864 ft 466 kts 217°
2026-04-23 18:22 -7.86027 -42.13133 35872 ft 466 kts 217°
2026-04-23 18:22 -7.91241 -42.17052 35863 ft 467 kts 217°
2026-04-23 18:23 -7.99053 -42.22926 35870 ft 467 kts 217°
2026-04-23 18:24 -8.06831 -42.28777 35869 ft 467 kts 217°
2026-04-23 18:25 -8.14648 -42.34660 35874 ft 467 kts 217°
2026-04-23 18:25 -8.18978 -42.37921 35867 ft 467 kts 217°
2026-04-23 18:26 -8.24180 -42.41839 35871 ft 467 kts 217°
2026-04-23 18:26 -8.30235 -42.46401 35873 ft 466 kts 217°
2026-04-23 18:27 -8.34556 -42.49658 35874 ft 466 kts 217°
2026-04-23 18:27 -8.39759 -42.53581 35879 ft 466 kts 217°
2026-04-23 18:28 -8.44954 -42.57499 35878 ft 466 kts 217°
2026-04-23 18:28 -8.50147 -42.61417 35877 ft 466 kts 217°
2026-04-23 18:29 -8.55343 -42.65340 35876 ft 466 kts 217°
2026-04-23 18:29 -8.60539 -42.69264 35880 ft 466 kts 217°
2026-04-23 18:30 -8.65729 -42.73182 35882 ft 466 kts 217°
2026-04-23 18:30 -8.70928 -42.77104 35885 ft 466 kts 217°
2026-04-23 18:31 -8.76092 -42.81002 35887 ft 466 kts 217°
2026-04-23 18:31 -8.81284 -42.84924 35893 ft 466 kts 217°
2026-04-23 18:32 -8.86487 -42.88855 35885 ft 466 kts 217°
2026-04-23 18:32 -8.91677 -42.92778 35895 ft 466 kts 217°
2026-04-23 18:33 -8.96867 -42.96704 35893 ft 466 kts 217°
2026-04-23 18:33 -9.02056 -43.00630 35893 ft 466 kts 217°
2026-04-23 18:34 -9.07251 -43.04561 35888 ft 466 kts 217°
2026-04-23 18:34 -9.12441 -43.08490 35882 ft 466 kts 216°
2026-04-23 18:35 -9.17635 -43.12424 35898 ft 466 kts 216°
2026-04-23 18:35 -9.22792 -43.16331 35888 ft 466 kts 216°
2026-04-23 18:36 -9.27973 -43.20259 35889 ft 465 kts 216°
2026-04-23 18:36 -9.33152 -43.24185 35887 ft 465 kts 216°
2026-04-23 18:37 -9.38329 -43.28112 35898 ft 465 kts 216°
2026-04-23 18:37 -9.43511 -43.32044 35891 ft 465 kts 216°
2026-04-23 18:38 -9.48685 -43.35972 35887 ft 465 kts 216°
2026-04-23 18:38 -9.53858 -43.39899 35897 ft 465 kts 216°
2026-04-23 18:39 -9.59030 -43.43829 35888 ft 465 kts 216°
2026-04-23 18:39 -9.64208 -43.47764 35892 ft 465 kts 216°
2026-04-23 18:40 -9.69380 -43.51696 35880 ft 465 kts 216°
2026-04-23 18:40 -9.74558 -43.55635 35887 ft 465 kts 215°
2026-04-23 18:41 -9.79698 -43.59546 35892 ft 465 kts 215°
2026-04-23 18:41 -9.84882 -43.63493 35890 ft 466 kts 215°
2026-04-23 18:42 -9.90063 -43.67438 35887 ft 466 kts 215°
2026-04-23 18:42 -9.95253 -43.71392 35887 ft 466 kts 215°
2026-04-23 18:43 -10.00440 -43.75346 35885 ft 467 kts 215°
2026-04-23 18:43 -10.05608 -43.79287 35885 ft 467 kts 214°
2026-04-23 18:44 -10.10803 -43.83251 35884 ft 467 kts 214°
2026-04-23 18:44 -10.16000 -43.87219 35887 ft 468 kts 214°
2026-04-23 18:45 -10.21204 -43.91196 35886 ft 468 kts 214°
2026-04-23 18:45 -10.26409 -43.95174 35892 ft 468 kts 214°
2026-04-23 18:46 -10.31607 -43.99149 35886 ft 468 kts 214°
2026-04-23 18:46 -10.36806 -44.03127 35894 ft 468 kts 214°
2026-04-23 18:47 -10.42008 -44.07108 35892 ft 468 kts 214°
2026-04-23 18:47 -10.47212 -44.11094 35883 ft 468 kts 213°
2026-04-23 18:48 -10.52416 -44.15080 35900 ft 468 kts 213°
2026-04-23 18:48 -10.57614 -44.19060 35901 ft 468 kts 213°
2026-04-23 18:49 -10.62785 -44.23019 35897 ft 468 kts 213°
2026-04-23 18:49 -10.67992 -44.27010 35899 ft 469 kts 213°
2026-04-23 18:50 -10.72324 -44.30331 35901 ft 469 kts 213°
2026-04-23 18:50 -10.78415 -44.35003 35900 ft 469 kts 213°
2026-04-23 18:51 -10.83628 -44.39005 35896 ft 470 kts 213°
2026-04-23 18:51 -10.88849 -44.43014 35906 ft 470 kts 213°
2026-04-23 18:52 -10.94067 -44.47023 35900 ft 470 kts 213°
2026-04-23 18:52 -10.99264 -44.51015 35899 ft 470 kts 212°
2026-04-23 18:53 -11.04881 -44.54257 35914 ft 462 kts 200°
2026-04-23 18:53 -11.10747 -44.56921 35905 ft 462 kts 199°
2026-04-23 18:54 -11.16625 -44.59584 35894 ft 462 kts 200°
2026-04-23 18:54 -11.22486 -44.62287 35896 ft 463 kts 200°
2026-04-23 18:55 -11.28340 -44.65013 35899 ft 463 kts 200°
2026-04-23 18:55 -11.34200 -44.67747 35901 ft 463 kts 200°
2026-04-23 18:56 -11.39070 -44.70020 35901 ft 463 kts 200°
2026-04-23 18:56 -11.45907 -44.73211 35906 ft 462 kts 200°
2026-04-23 18:57 -11.51759 -44.75942 35905 ft 462 kts 200°
2026-04-23 18:57 -11.57568 -44.78655 35905 ft 462 kts 200°
2026-04-23 18:58 -11.63419 -44.81389 35905 ft 461 kts 200°
2026-04-23 18:58 -11.69254 -44.84116 35906 ft 461 kts 200°
2026-04-23 18:59 -11.75086 -44.86844 35902 ft 461 kts 200°
2026-04-23 18:59 -11.80914 -44.89571 35912 ft 461 kts 200°
2026-04-23 19:00 -11.86748 -44.92301 35913 ft 461 kts 200°
2026-04-23 19:00 -11.92584 -44.95035 35903 ft 461 kts 200°
2026-04-23 19:01 -11.98421 -44.97769 35903 ft 461 kts 200°
2026-04-23 19:01 -12.04244 -45.00500 35906 ft 460 kts 200°
2026-04-23 19:02 -12.09080 -45.02768 35907 ft 460 kts 200°
2026-04-23 19:02 -12.15841 -45.05940 35911 ft 459 kts 200°
2026-04-23 19:03 -12.21648 -45.08666 35917 ft 459 kts 200°
2026-04-23 19:03 -12.27467 -45.11399 35916 ft 459 kts 200°
2026-04-23 19:04 -12.33276 -45.14129 35913 ft 459 kts 200°
2026-04-23 19:04 -12.39071 -45.16854 35916 ft 458 kts 200°
2026-04-23 19:05 -12.44860 -45.19577 35920 ft 458 kts 200°
2026-04-23 19:05 -12.50653 -45.22304 35923 ft 458 kts 200°
2026-04-23 19:06 -12.56403 -45.25011 35918 ft 457 kts 200°
2026-04-23 19:06 -12.62185 -45.27733 35923 ft 457 kts 200°
2026-04-23 19:07 -12.67959 -45.30450 35922 ft 457 kts 200°
2026-04-23 19:07 -12.73737 -45.33172 35927 ft 457 kts 200°
2026-04-23 19:08 -12.79507 -45.35892 35926 ft 457 kts 200°
2026-04-23 19:08 -12.85283 -45.38616 35933 ft 457 kts 200°
2026-04-23 19:09 -12.91062 -45.41343 35928 ft 457 kts 200°
2026-04-23 19:09 -12.96808 -45.44056 35937 ft 457 kts 200°
2026-04-23 19:10 -13.02581 -45.46783 35938 ft 457 kts 200°
2026-04-23 19:10 -13.08356 -45.49513 35939 ft 457 kts 200°
2026-04-23 19:11 -13.14139 -45.52247 35934 ft 457 kts 200°
2026-04-23 19:11 -13.19919 -45.54982 35939 ft 457 kts 200°
2026-04-23 19:12 -13.24721 -45.57256 35939 ft 458 kts 200°
2026-04-23 19:12 -13.31457 -45.60447 35942 ft 458 kts 201°
2026-04-23 19:13 -13.37091 -45.63521 35948 ft 460 kts 206°
2026-04-23 19:13 -13.42651 -45.66832 35946 ft 461 kts 206°
2026-04-23 19:14 -13.48194 -45.70130 35949 ft 460 kts 206°
2026-04-23 19:14 -13.53758 -45.73402 35953 ft 460 kts 206°
2026-04-23 19:15 -13.59318 -45.76656 35949 ft 460 kts 206°
2026-04-23 19:15 -13.63938 -45.79361 35958 ft 460 kts 206°
2026-04-23 19:16 -13.69502 -45.82620 35956 ft 460 kts 206°
2026-04-23 19:16 -13.75065 -45.85881 35955 ft 460 kts 206°
2026-04-23 19:17 -13.83369 -45.90754 35964 ft 459 kts 206°
2026-04-23 19:17 -13.88921 -45.94013 35960 ft 460 kts 206°
2026-04-23 19:18 -13.94490 -45.97285 35959 ft 459 kts 206°
2026-04-23 19:18 -14.00036 -46.00546 35964 ft 459 kts 206°
2026-04-23 19:19 -14.08321 -46.05420 35962 ft 459 kts 206°
2026-04-23 19:20 -14.16638 -46.10318 35957 ft 459 kts 206°
2026-04-23 19:20 -14.22178 -46.13596 35961 ft 459 kts 206°
2026-04-23 19:21 -14.30482 -46.18518 35952 ft 459 kts 206°
2026-04-23 19:22 -14.36024 -46.21804 35952 ft 459 kts 206°
2026-04-23 19:22 -14.44325 -46.26729 35948 ft 459 kts 207°
2026-04-23 19:23 -14.49865 -46.30018 35946 ft 459 kts 207°
2026-04-23 19:24 -14.58143 -46.34937 35949 ft 459 kts 207°
2026-04-23 19:24 -14.66297 -46.40172 35955 ft 461 kts 211°
2026-04-23 19:25 -14.76925 -46.47606 35960 ft 461 kts 211°
2026-04-23 19:26 -14.84924 -46.53137 35964 ft 461 kts 211°
2026-04-23 19:27 -14.98222 -46.62304 35966 ft 461 kts 211°
2026-04-23 19:28 -15.08887 -46.69668 35972 ft 460 kts 211°
2026-04-23 19:29 -15.16877 -46.75192 35979 ft 460 kts 211°
2026-04-23 19:30 -15.24851 -46.80710 35982 ft 459 kts 212°
2026-04-23 19:31 -15.32820 -46.86229 35983 ft 459 kts 212°
2026-04-23 19:31 -15.38088 -46.89881 35985 ft 459 kts 212°
2026-04-23 19:32 -15.43390 -46.93558 35984 ft 459 kts 212°
2026-04-23 19:32 -15.48694 -46.97240 35988 ft 458 kts 212°
2026-04-23 19:33 -15.53997 -47.00922 35987 ft 458 kts 212°
2026-04-23 19:33 -15.61945 -47.06446 35991 ft 458 kts 212°
2026-04-23 19:34 -15.67246 -47.10133 35992 ft 458 kts 212°
2026-04-23 19:35 -15.75184 -47.15659 35992 ft 458 kts 212°
2026-04-23 19:35 -15.80481 -47.19349 35996 ft 458 kts 212°
2026-04-23 19:36 -15.85771 -47.23036 35995 ft 458 kts 212°
2026-04-23 19:36 -15.91057 -47.26724 35998 ft 458 kts 212°
2026-04-23 19:37 -15.96314 -47.30393 35999 ft 458 kts 212°
2026-04-23 19:37 -16.01605 -47.34088 35996 ft 458 kts 212°
2026-04-23 19:38 -16.06894 -47.37785 35996 ft 458 kts 212°
2026-04-23 19:38 -16.12179 -47.41481 35996 ft 458 kts 212°
2026-04-23 19:39 -16.17471 -47.45184 35998 ft 458 kts 212°
2026-04-23 19:39 -16.22763 -47.48890 35998 ft 458 kts 212°
2026-04-23 19:40 -16.28019 -47.52573 36000 ft 458 kts 212°
2026-04-23 19:40 -16.33305 -47.56280 35998 ft 458 kts 212°
2026-04-23 19:41 -16.38592 -47.59989 35999 ft 458 kts 212°
2026-04-23 19:41 -16.43887 -47.63707 36000 ft 459 kts 212°
2026-04-23 19:42 -16.49176 -47.67423 35995 ft 459 kts 212°
2026-04-23 19:42 -16.54466 -47.71142 35997 ft 458 kts 212°
2026-04-23 19:43 -16.59752 -47.74861 35999 ft 459 kts 212°
2026-04-23 19:43 -16.65046 -47.78589 36000 ft 458 kts 212°
2026-04-23 19:44 -16.70336 -47.82315 35997 ft 458 kts 212°
2026-04-23 19:44 -16.75583 -47.86014 35994 ft 458 kts 212°
2026-04-23 19:45 -16.80864 -47.89740 35993 ft 458 kts 212°
2026-04-23 19:45 -16.86141 -47.93465 35990 ft 458 kts 212°
2026-04-23 19:46 -16.91411 -47.97188 35987 ft 457 kts 212°
2026-04-23 19:46 -16.96685 -48.00916 35986 ft 457 kts 213°
2026-04-23 19:47 -17.01066 -48.04015 35986 ft 457 kts 213°
2026-04-23 19:47 -17.07215 -48.08368 35987 ft 457 kts 212°
2026-04-23 19:48 -17.12484 -48.12099 35983 ft 456 kts 213°
2026-04-23 19:48 -17.17699 -48.15796 35988 ft 456 kts 213°
2026-04-23 19:49 -17.22800 -48.19414 35978 ft 456 kts 213°
2026-04-23 19:49 -17.28047 -48.23139 35981 ft 456 kts 213°
2026-04-23 19:50 -17.33300 -48.26871 35981 ft 456 kts 213°
2026-04-23 19:50 -17.38546 -48.30599 35980 ft 456 kts 213°
2026-04-23 19:51 -17.43789 -48.34329 35984 ft 455 kts 213°
2026-04-23 19:51 -17.49039 -48.38066 35978 ft 455 kts 213°
2026-04-23 19:52 -17.53392 -48.41167 35978 ft 455 kts 213°
2026-04-23 19:52 -17.59471 -48.45500 35979 ft 455 kts 213°
2026-04-23 19:53 -17.64704 -48.49233 35977 ft 454 kts 213°
2026-04-23 19:53 -17.69928 -48.52962 35973 ft 454 kts 213°
2026-04-23 19:54 -17.75151 -48.56694 35977 ft 454 kts 213°
2026-04-23 19:54 -17.80367 -48.60422 35969 ft 453 kts 213°
2026-04-23 19:55 -17.85577 -48.64150 35971 ft 453 kts 213°
2026-04-23 19:55 -17.90782 -48.67876 35973 ft 453 kts 213°
2026-04-23 19:56 -17.95981 -48.71601 35972 ft 452 kts 213°
2026-04-23 19:56 -18.01174 -48.75324 35974 ft 452 kts 213°
2026-04-23 19:57 -18.06334 -48.79026 35970 ft 451 kts 213°
2026-04-23 19:57 -18.10678 -48.82145 35974 ft 451 kts 213°
2026-04-23 19:58 -18.16697 -48.86470 35969 ft 451 kts 213°
2026-04-23 19:58 -18.21868 -48.90188 35973 ft 450 kts 213°
2026-04-23 19:59 -18.27040 -48.93909 35972 ft 449 kts 213°
2026-04-23 19:59 -18.32205 -48.97629 35972 ft 449 kts 213°
2026-04-23 20:00 -18.37349 -49.01336 35971 ft 448 kts 213°
2026-04-23 20:00 -18.42485 -49.05040 35973 ft 447 kts 213°
2026-04-23 20:01 -18.47582 -49.08718 35975 ft 446 kts 213°
2026-04-23 20:01 -18.52710 -49.12421 35973 ft 446 kts 213°
2026-04-23 20:02 -18.57820 -49.16114 35968 ft 445 kts 213°
2026-04-23 20:02 -18.62922 -49.19805 35971 ft 445 kts 213°
2026-04-23 20:03 -18.68026 -49.23500 35970 ft 444 kts 213°
2026-04-23 20:03 -18.73124 -49.27192 35971 ft 444 kts 214°
2026-04-23 20:04 -18.78191 -49.30865 35970 ft 444 kts 214°
2026-04-23 20:04 -18.82457 -49.33961 35965 ft 444 kts 214°
2026-04-23 20:05 -18.87553 -49.37659 35969 ft 444 kts 214°
2026-04-23 20:05 -18.93477 -49.41963 35964 ft 444 kts 214°
2026-04-23 20:06 -18.97712 -49.45042 35960 ft 445 kts 214°
2026-04-23 20:06 -19.02808 -49.48749 35963 ft 445 kts 214°
2026-04-23 20:07 -19.07905 -49.52461 35964 ft 445 kts 214°
2026-04-23 20:07 -19.13010 -49.56181 35962 ft 445 kts 214°
2026-04-23 20:08 -19.18106 -49.59897 35959 ft 446 kts 214°
2026-04-23 20:08 -19.23215 -49.63625 35963 ft 446 kts 214°
2026-04-23 20:09 -19.28325 -49.67358 35964 ft 446 kts 214°
2026-04-23 20:09 -19.33424 -49.71084 35959 ft 446 kts 214°
2026-04-23 20:10 -19.38528 -49.74817 35958 ft 446 kts 214°
2026-04-23 20:10 -19.43628 -49.78551 35956 ft 445 kts 214°
2026-04-23 20:11 -19.48696 -49.82263 35955 ft 445 kts 214°
2026-04-23 20:11 -19.53793 -49.86000 35953 ft 445 kts 215°
2026-04-23 20:12 -19.58879 -49.89733 35956 ft 444 kts 215°
2026-04-23 20:12 -19.63962 -49.93465 35956 ft 444 kts 215°
2026-04-23 20:13 -19.69031 -49.97191 35959 ft 443 kts 215°
2026-04-23 20:13 -19.74107 -50.00924 35955 ft 443 kts 215°
2026-04-23 20:14 -19.79171 -50.04651 35957 ft 443 kts 215°
2026-04-23 20:14 -19.84230 -50.08378 35960 ft 442 kts 215°
2026-04-23 20:15 -19.89290 -50.12108 35961 ft 442 kts 215°
2026-04-23 20:15 -19.94340 -50.15835 35960 ft 442 kts 215°
2026-04-23 20:16 -19.99389 -50.19564 35963 ft 442 kts 216°
2026-04-23 20:16 -20.04408 -50.23274 35963 ft 442 kts 216°
2026-04-23 20:17 -20.09456 -50.27007 35965 ft 442 kts 216°
2026-04-23 20:17 -20.14724 -50.30382 35973 ft 442 kts 208°
2026-04-23 20:18 -20.20230 -50.33312 35966 ft 442 kts 207°
2026-04-23 20:18 -20.25736 -50.36230 35968 ft 442 kts 208°
2026-04-23 20:19 -20.31233 -50.39198 35967 ft 442 kts 208°
2026-04-23 20:19 -20.36667 -50.42161 35969 ft 442 kts 208°
2026-04-23 20:20 -20.42139 -50.45150 35967 ft 441 kts 208°
2026-04-23 20:20 -20.47597 -50.48134 35971 ft 441 kts 209°
2026-04-23 20:21 -20.53049 -50.51114 35967 ft 440 kts 209°
2026-04-23 20:21 -20.58485 -50.54089 35969 ft 439 kts 209°
2026-04-23 20:22 -20.63925 -50.57068 35970 ft 439 kts 209°
2026-04-23 20:22 -20.69357 -50.60046 35973 ft 438 kts 209°
2026-04-23 20:23 -20.74774 -50.63018 35969 ft 437 kts 209°
2026-04-23 20:23 -20.80149 -50.65979 35973 ft 437 kts 210°
2026-04-23 20:24 -20.85521 -50.69017 35975 ft 436 kts 210°
2026-04-23 20:24 -20.90875 -50.72059 35971 ft 436 kts 210°
2026-04-23 20:25 -20.96244 -50.75104 35981 ft 435 kts 210°
2026-04-23 20:25 -21.01561 -50.78118 35976 ft 435 kts 210°
2026-04-23 20:26 -21.06911 -50.81153 35977 ft 435 kts 210°
2026-04-23 20:26 -21.12296 -50.84209 35977 ft 435 kts 210°
2026-04-23 20:27 -21.17618 -50.87217 35981 ft 435 kts 210°
2026-04-23 20:27 -21.22973 -50.90242 35984 ft 435 kts 210°
2026-04-23 20:28 -21.28325 -50.93271 35978 ft 435 kts 210°
2026-04-23 20:28 -21.33679 -50.96310 35988 ft 435 kts 211°
2026-04-23 20:29 -21.39031 -50.99351 35982 ft 435 kts 211°
2026-04-23 20:29 -21.44347 -51.02373 35986 ft 435 kts 211°
2026-04-23 20:30 -21.49687 -51.05423 35983 ft 435 kts 211°
2026-04-23 20:30 -21.57695 -51.10019 35984 ft 435 kts 211°
2026-04-23 20:31 -21.63069 -51.13020 35988 ft 435 kts 210°
2026-04-23 20:31 -21.68441 -51.16018 35988 ft 434 kts 210°
2026-04-23 20:32 -21.73801 -51.19021 35985 ft 434 kts 210°
2026-04-23 20:32 -21.79193 -51.21957 35987 ft 434 kts 210°
2026-04-23 20:33 -21.84593 -51.24859 35986 ft 433 kts 210°
2026-04-23 20:33 -21.89942 -51.27745 35999 ft 433 kts 210°
2026-04-23 20:34 -21.95315 -51.30655 36007 ft 432 kts 210°
2026-04-23 20:34 -22.00680 -51.33566 36011 ft 431 kts 210°
2026-04-23 20:35 -22.06044 -51.36479 36021 ft 431 kts 210°
2026-04-23 20:35 -22.11405 -51.39392 36021 ft 431 kts 210°
2026-04-23 20:36 -22.16758 -51.42303 36022 ft 431 kts 211°
2026-04-23 20:36 -22.21969 -51.45455 36023 ft 429 kts 214°
2026-04-23 20:37 -22.27091 -51.48769 36022 ft 429 kts 214°
2026-04-23 20:37 -22.32213 -51.52084 36022 ft 429 kts 214°
2026-04-23 20:38 -22.37320 -51.55364 36011 ft 430 kts 214°
2026-04-23 20:38 -22.42484 -51.58668 36012 ft 431 kts 214°
2026-04-23 20:39 -22.47646 -51.61971 36000 ft 432 kts 214°
2026-04-23 20:39 -22.52826 -51.65287 36001 ft 432 kts 214°
2026-04-23 20:40 -22.58003 -51.68604 36002 ft 432 kts 214°
2026-04-23 20:40 -22.63180 -51.71925 36002 ft 432 kts 214°
2026-04-23 20:41 -22.68326 -51.75230 36008 ft 432 kts 214°
2026-04-23 20:41 -22.73505 -51.78558 36008 ft 432 kts 214°
2026-04-23 20:42 -22.78685 -51.81889 36004 ft 432 kts 214°
2026-04-23 20:42 -22.83851 -51.85216 36004 ft 432 kts 214°
2026-04-23 20:43 -22.88990 -51.88527 36010 ft 432 kts 214°
2026-04-23 20:43 -22.94149 -51.91854 36007 ft 431 kts 215°
2026-04-23 20:44 -22.99299 -51.95178 36007 ft 430 kts 215°
2026-04-23 20:44 -23.04442 -51.98501 36009 ft 430 kts 215°
2026-04-23 20:45 -23.09582 -52.01825 36007 ft 430 kts 215°
2026-04-23 20:45 -23.14698 -52.05137 36009 ft 429 kts 215°
2026-04-23 20:46 -23.19830 -52.08462 36017 ft 429 kts 215°
2026-04-23 20:46 -23.24949 -52.11781 36028 ft 428 kts 215°
2026-04-23 20:47 -23.30072 -52.15107 36030 ft 429 kts 215°
2026-04-23 20:47 -23.35163 -52.18414 36030 ft 428 kts 215°
2026-04-23 20:48 -23.40277 -52.21739 36032 ft 428 kts 215°
2026-04-23 20:48 -23.45401 -52.25073 36028 ft 428 kts 215°
2026-04-23 20:49 -23.50510 -52.28401 36020 ft 428 kts 215°
2026-04-23 20:49 -23.55631 -52.31740 36016 ft 429 kts 215°
2026-04-23 20:50 -23.60747 -52.35079 36002 ft 428 kts 215°
2026-04-23 20:50 -23.65859 -52.38418 35999 ft 428 kts 215°
2026-04-23 20:51 -23.70968 -52.41758 36001 ft 428 kts 215°
2026-04-23 20:51 -23.76080 -52.45103 36003 ft 428 kts 216°
2026-04-23 20:52 -23.80316 -52.47877 36004 ft 428 kts 216°
2026-04-23 20:52 -23.86255 -52.51770 36010 ft 427 kts 216°
2026-04-23 20:53 -23.91351 -52.55115 36000 ft 427 kts 216°
2026-04-23 20:53 -23.95588 -52.57898 36014 ft 427 kts 216°
2026-04-23 20:54 -24.00680 -52.61245 36006 ft 427 kts 216°
2026-04-23 20:54 -24.05768 -52.64593 36012 ft 427 kts 216°
2026-04-23 20:55 -24.10852 -52.67941 36010 ft 426 kts 216°
2026-04-23 20:55 -24.15936 -52.71292 36021 ft 426 kts 216°
2026-04-23 20:56 -24.20986 -52.74624 36010 ft 426 kts 216°
2026-04-23 20:56 -24.23529 -52.76303 35897 ft 428 kts 216°
2026-04-23 20:56 -24.26077 -52.77987 35560 ft 426 kts 216°
2026-04-23 20:57 -24.28600 -52.79653 35135 ft 422 kts 216°
2026-04-23 20:57 -24.31104 -52.81306 34742 ft 418 kts 216°
2026-04-23 20:57 -24.33582 -52.82945 34332 ft 415 kts 216°
2026-04-23 20:57 -24.36050 -52.84578 33892 ft 413 kts 216°
2026-04-23 20:58 -24.38505 -52.86204 33435 ft 410 kts 216°
2026-04-23 20:58 -24.40937 -52.87815 33010 ft 407 kts 216°
2026-04-23 20:58 -24.43357 -52.89419 32589 ft 404 kts 216°
2026-04-23 20:58 -24.45754 -52.91009 32184 ft 402 kts 216°
2026-04-23 20:59 -24.48139 -52.92592 31782 ft 399 kts 216°
2026-04-23 20:59 -24.50510 -52.94165 31387 ft 396 kts 216°
2026-04-23 20:59 -24.52861 -52.95726 30994 ft 394 kts 216°
2026-04-23 20:59 -24.55173 -52.97263 30609 ft 392 kts 216°
2026-04-23 21:00 -24.57534 -52.98833 30198 ft 391 kts 216°
2026-04-23 21:00 -24.59860 -53.00380 29759 ft 390 kts 216°
2026-04-23 21:00 -24.62170 -53.01916 29327 ft 387 kts 216°
2026-04-23 21:00 -24.64439 -53.03426 28909 ft 385 kts 216°
2026-04-23 21:01 -24.66573 -53.05145 28489 ft 376 kts 227°
2026-04-23 21:01 -24.68353 -53.07211 28098 ft 368 kts 235°
2026-04-23 21:01 -24.69790 -53.09511 27697 ft 361 kts 245°
2026-04-23 21:01 -24.70947 -53.11952 27307 ft 358 kts 246°
2026-04-23 21:02 -24.72072 -53.14389 26923 ft 356 kts 246°
2026-04-23 21:02 -24.73186 -53.16816 26539 ft 354 kts 246°
2026-04-23 21:02 -24.74293 -53.19224 26156 ft 352 kts 246°
2026-04-23 21:02 -24.75401 -53.21625 25785 ft 351 kts 246°
2026-04-23 21:03 -24.76507 -53.24017 25393 ft 350 kts 246°
2026-04-23 21:03 -24.77612 -53.26402 25014 ft 349 kts 246°
2026-04-23 21:03 -24.78713 -53.28776 24642 ft 348 kts 246°
2026-04-23 21:03 -24.79815 -53.31152 24265 ft 348 kts 246°
2026-04-23 21:04 -24.80914 -53.33520 23884 ft 348 kts 246°
2026-04-23 21:04 -24.82014 -53.35890 23483 ft 347 kts 246°
2026-04-23 21:04 -24.83112 -53.38257 23076 ft 346 kts 246°
2026-04-23 21:04 -24.84189 -53.40580 22693 ft 344 kts 246°
2026-04-23 21:05 -24.85288 -53.42952 22312 ft 342 kts 246°
2026-04-23 21:05 -24.86352 -53.45247 21947 ft 340 kts 246°
2026-04-23 21:05 -24.87421 -53.47555 21590 ft 338 kts 246°
2026-04-23 21:05 -24.88483 -53.49851 21236 ft 336 kts 246°
2026-04-23 21:06 -24.89543 -53.52141 20885 ft 334 kts 246°
2026-04-23 21:06 -24.90596 -53.54420 20521 ft 333 kts 246°
2026-04-23 21:06 -24.91642 -53.56683 20167 ft 331 kts 246°
2026-04-23 21:06 -24.92683 -53.58937 19811 ft 330 kts 246°
2026-04-23 21:07 -24.93722 -53.61189 19455 ft 329 kts 246°
2026-04-23 21:07 -24.94758 -53.63435 19101 ft 328 kts 246°
2026-04-23 21:07 -24.95792 -53.65677 18743 ft 327 kts 246°
2026-04-23 21:07 -24.96824 -53.67917 18370 ft 327 kts 245°
2026-04-23 21:08 -24.97852 -53.70149 17979 ft 326 kts 245°
2026-04-23 21:08 -24.98878 -53.72377 17602 ft 325 kts 245°
2026-04-23 21:08 -24.99899 -53.74596 17227 ft 323 kts 245°
2026-04-23 21:08 -25.00915 -53.76804 16876 ft 322 kts 245°
2026-04-23 21:09 -25.01926 -53.79002 16521 ft 320 kts 245°
2026-04-23 21:09 -25.02931 -53.81188 16180 ft 319 kts 245°
2026-04-23 21:09 -25.03918 -53.83338 15829 ft 318 kts 245°
2026-04-23 21:09 -25.04913 -53.85504 15489 ft 316 kts 245°
2026-04-23 21:10 -25.05906 -53.87668 15136 ft 315 kts 244°
2026-04-23 21:10 -25.06895 -53.89825 14801 ft 314 kts 244°
2026-04-23 21:10 -25.07879 -53.91971 14459 ft 313 kts 244°
2026-04-23 21:10 -25.08859 -53.94110 14126 ft 313 kts 244°
2026-04-23 21:11 -25.09841 -53.96255 13776 ft 313 kts 244°
2026-04-23 21:11 -25.10822 -53.98396 13408 ft 312 kts 244°
2026-04-23 21:11 -25.11799 -54.00531 13050 ft 311 kts 244°
2026-04-23 21:11 -25.12772 -54.02658 12709 ft 310 kts 244°
2026-04-23 21:12 -25.13741 -54.04776 12365 ft 308 kts 244°
2026-04-23 21:12 -25.14692 -54.06857 12041 ft 307 kts 244°
2026-04-23 21:12 -25.15648 -54.08952 11708 ft 305 kts 244°
2026-04-23 21:12 -25.16603 -54.11044 11376 ft 304 kts 244°
2026-04-23 21:13 -25.17565 -54.13152 11045 ft 303 kts 244°
2026-04-23 21:13 -25.18499 -54.15201 10727 ft 302 kts 244°
2026-04-23 21:13 -25.19446 -54.17277 10397 ft 301 kts 244°
2026-04-23 21:13 -25.20380 -54.19326 10209 ft 295 kts 243°
2026-04-23 21:14 -25.21293 -54.21331 10057 ft 289 kts 244°
2026-04-23 21:14 -25.22188 -54.23296 9802 ft 286 kts 243°
2026-04-23 21:14 -25.23081 -54.25258 9499 ft 285 kts 243°
2026-04-23 21:14 -25.23968 -54.27208 9190 ft 284 kts 243°
2026-04-23 21:15 -25.24853 -54.29154 8901 ft 283 kts 244°
2026-04-23 21:15 -25.25734 -54.31093 8609 ft 282 kts 244°
2026-04-23 21:15 -25.26611 -54.33023 8315 ft 281 kts 244°
2026-04-23 21:15 -25.27484 -54.34945 8025 ft 280 kts 244°
2026-04-23 21:16 -25.28345 -54.36841 7733 ft 279 kts 244°
2026-04-23 21:16 -25.29212 -54.38753 7453 ft 278 kts 244°
2026-04-23 21:16 -25.30080 -54.40666 7157 ft 278 kts 244°
2026-04-23 21:16 -25.30943 -54.42571 6872 ft 277 kts 244°
2026-04-23 21:17 -25.31805 -54.44475 6580 ft 277 kts 244°
2026-04-23 21:17 -25.32668 -54.46378 6280 ft 276 kts 244°
2026-04-23 21:17 -25.33528 -54.48278 5980 ft 276 kts 244°
2026-04-23 21:17 -25.34381 -54.50165 5689 ft 274 kts 244°
2026-04-23 21:18 -25.35235 -54.52051 5399 ft 273 kts 244°
2026-04-23 21:18 -25.36084 -54.53929 5116 ft 273 kts 244°
2026-04-23 21:18 -25.36930 -54.55801 4830 ft 272 kts 245°
2026-04-23 21:18 -25.37776 -54.57673 4582 ft 270 kts 245°
2026-04-23 21:19 -25.38811 -54.59367 4428 ft 265 kts 223°
2026-04-23 21:19 -25.40351 -54.60408 4328 ft 258 kts 202°
2026-04-23 21:19 -25.41994 -54.61079 4199 ft 245 kts 200°
2026-04-23 21:19 -25.43557 -54.61705 4091 ft 233 kts 201°
2026-04-23 21:20 -25.45045 -54.62309 4017 ft 221 kts 201°
2026-04-23 21:20 -25.46463 -54.62886 3821 ft 213 kts 198°
2026-04-23 21:20 -25.47879 -54.62935 3593 ft 200 kts 156°
2026-04-23 21:20 -25.48924 -54.62072 3463 ft 182 kts 134°
2026-04-23 21:21 -25.49822 -54.61157 3253 ft 167 kts 136°
2026-04-23 21:21 -25.50633 -54.60246 3029 ft 165 kts 131°
2026-04-23 21:21 -25.51378 -54.59311 2829 ft 162 kts 129°
2026-04-23 21:21 -25.52115 -54.58363 2611 ft 162 kts 130°
2026-04-23 21:22 -25.52850 -54.57417 2411 ft 162 kts 129°
2026-04-23 21:22 -25.53581 -54.56473 2205 ft 161 kts 129°
2026-04-23 21:22 -25.54307 -54.55535 2012 ft 161 kts 129°
2026-04-23 21:22 -25.55031 -54.54599 1790 ft 158 kts 129°
2026-04-23 21:23 -25.55751 -54.53670 1601 ft 159 kts 129°
2026-04-23 21:23 -25.56466 -54.52748 1411 ft 157 kts 129°
2026-04-23 21:23 -25.57169 -54.51839 1227 ft 154 kts 129°
2026-04-23 21:23 -25.57858 -54.50945 1100 ft 151 kts 129°
2026-04-23 21:24 -25.58545 -54.50067 935 ft 150 kts 129°
2026-04-23 21:24 -25.59217 -54.49209 799 ft 147 kts 130°
2026-04-23 21:24 -25.59738 -54.48532 794 ft 77 kts 131°
2026-04-23 21:24 -25.59934 -54.48312 796 ft 16 kts 174°
2026-04-23 21:25 -25.59946 -54.48276 796 ft 5 kts 35°
2026-04-23 21:25 -25.59911 -54.48296 796 ft 8 kts 306°
2026-04-23 21:25 -25.59874 -54.48357 796 ft 11 kts 307°
2026-04-23 21:25 -25.59814 -54.48439 795 ft 14 kts 309°
2026-04-23 21:26 -25.59831 -54.48514 795 ft 8 kts 222°
2026-04-23 21:26 -25.59841 -54.48571 797 ft 9 kts 300°
2026-04-23 21:26 -25.59789 -54.48634 797 ft 13 kts 314°
2026-04-23 21:26 -25.59727 -54.48719 797 ft 15 kts 309°
2026-04-23 21:27 -25.59707 -54.48781 797 ft 7 kts 235°
2026-04-23 21:27 -25.59728 -54.48803 797 ft 0 kts 221°